CYAW

Shearwater Airport

Shearwater, Canada
Issued Wind Visibility Ceiling Temperature Dew Point Humidity Barometer
Sep-26
16:00 UTC
250°
7 KTS
15 miles Broken
24,000' AGL
26° C
79° F
20° C
68° F
70% 29.98" Hg
1015.1 hPa
VFR
Sep-26
15:00 UTC
250°
10 KTS
15 miles Broken
24,000' AGL
24° C
75° F
19° C
66° F
74% 29.99" Hg
1015.6 hPa
VFR
Sep-26
14:00 UTC
230°
13 KTS
15 miles Broken
24,000' AGL
23° C
73° F
19° C
66° F
78% 29.99" Hg
1015.7 hPa
VFR
Sep-26
13:00 UTC
220°
7 KTS
15 miles Broken
22,000' AGL
21° C
70° F
18° C
64° F
83% 30.01" Hg
1016.3 hPa
VFR
Sep-26
01:00 UTC
190°
3 KTS
15 miles   18° C
64° F
17° C
63° F
94% 30.08" Hg
1018.5 hPa
VFR
Sep-26
00:00 UTC
200°
3 KTS
12 miles   18° C
64° F
17° C
63° F
94% 30.08" Hg
1018.8 hPa
VFR
Sep-25
23:00 UTC
170°
4 KTS
12 miles   18° C
64° F
17° C
63° F
94% 30.08" Hg
1018.8 hPa
VFR
Sep-25
22:00 UTC
160°
6 KTS
12 miles   18° C
64° F
17° C
63° F
94% 30.09" Hg
1018.9 hPa
VFR
Sep-25
21:00 UTC
150°
7 KTS
15 miles   19° C
66° F
17° C
63° F
88% 30.09" Hg
1018.9 hPa
VFR
Sep-25
20:00 UTC
170°
7 KTS
15 miles   20° C
68° F
16° C
61° F
78% 30.09" Hg
1019 hPa
VFR
Sep-25
19:00 UTC
160°
5 KTS
15 miles   20° C
68° F
16° C
61° F
78% 30.09" Hg
1019.1 hPa
VFR
Sep-25
18:00 UTC
170°
6 KTS
15 miles Broken
25,000' AGL
21° C
70° F
15° C
59° F
69% 30.1" Hg
1019.4 hPa
VFR
Sep-25
17:00 UTC
110°
5 KTS
15 miles Broken
25,000' AGL
21° C
70° F
16° C
61° F
73% 30.11" Hg
1019.6 hPa
VFR